Index of /20260430/WXO-DD/model_gdps/15km/12/063
Name Last modified Size Description
Parent Directory -
20260430T12Z_MSC_GDPS_AbsoluteVorticity_IsbL-0200_LatLon0.15_PT063H.grib2 2026-04-30 16:10 1.5M
20260430T12Z_MSC_GDPS_AbsoluteVorticity_IsbL-0250_LatLon0.15_PT063H.grib2 2026-04-30 16:10 1.3M
20260430T12Z_MSC_GDPS_AbsoluteVorticity_IsbL-0500_LatLon0.15_PT063H.grib2 2026-04-30 16:10 1.4M
20260430T12Z_MSC_GDPS_AbsoluteVorticity_IsbL-0700_LatLon0.15_PT063H.grib2 2026-04-30 16:10 1.6M
20260430T12Z_MSC_GDPS_AbsoluteVorticity_IsbL-0850_LatLon0.15_PT063H.grib2 2026-04-30 16:10 1.6M
20260430T12Z_MSC_GDPS_AirTemp_AGL-120m_LatLon0.15_PT063H.grib2 2026-04-30 16:10 906K
20260430T12Z_MSC_GDPS_AirTemp_AGL-2m_LatLon0.15_PT063H.grib2 2026-04-30 16:10 1.0M
20260430T12Z_MSC_GDPS_AirTemp_AGL-40m_LatLon0.15_PT063H.grib2 2026-04-30 16:10 928K
20260430T12Z_MSC_GDPS_AirTemp_AGL-80m_LatLon0.15_PT063H.grib2 2026-04-30 16:10 916K
20260430T12Z_MSC_GDPS_AirTemp_IsbL-0001_LatLon0.15_PT063H.grib2 2026-04-30 16:10 718K
20260430T12Z_MSC_GDPS_AirTemp_IsbL-0005_LatLon0.15_PT063H.grib2 2026-04-30 16:10 684K
20260430T12Z_MSC_GDPS_AirTemp_IsbL-0010_LatLon0.15_PT063H.grib2 2026-04-30 16:10 688K
20260430T12Z_MSC_GDPS_AirTemp_IsbL-0020_LatLon0.15_PT063H.grib2 2026-04-30 16:10 782K
20260430T12Z_MSC_GDPS_AirTemp_IsbL-0030_LatLon0.15_PT063H.grib2 2026-04-30 16:10 833K
20260430T12Z_MSC_GDPS_AirTemp_IsbL-0050_LatLon0.15_PT063H.grib2 2026-04-30 16:10 809K
20260430T12Z_MSC_GDPS_AirTemp_IsbL-0100_LatLon0.15_PT063H.grib2 2026-04-30 16:10 966K
20260430T12Z_MSC_GDPS_AirTemp_IsbL-0150_LatLon0.15_PT063H.grib2 2026-04-30 16:10 972K
20260430T12Z_MSC_GDPS_AirTemp_IsbL-0175_LatLon0.15_PT063H.grib2 2026-04-30 16:10 957K
20260430T12Z_MSC_GDPS_AirTemp_IsbL-0200_LatLon0.15_PT063H.grib2 2026-04-30 16:10 971K
20260430T12Z_MSC_GDPS_AirTemp_IsbL-0225_LatLon0.15_PT063H.grib2 2026-04-30 16:10 1.0M
20260430T12Z_MSC_GDPS_AirTemp_IsbL-0250_LatLon0.15_PT063H.grib2 2026-04-30 16:10 1.0M
20260430T12Z_MSC_GDPS_AirTemp_IsbL-0275_LatLon0.15_PT063H.grib2 2026-04-30 16:10 1.0M
20260430T12Z_MSC_GDPS_AirTemp_IsbL-0300_LatLon0.15_PT063H.grib2 2026-04-30 16:10 1.0M
20260430T12Z_MSC_GDPS_AirTemp_IsbL-0350_LatLon0.15_PT063H.grib2 2026-04-30 16:10 925K
20260430T12Z_MSC_GDPS_AirTemp_IsbL-0400_LatLon0.15_PT063H.grib2 2026-04-30 16:10 936K
20260430T12Z_MSC_GDPS_AirTemp_IsbL-0450_LatLon0.15_PT063H.grib2 2026-04-30 16:10 955K
20260430T12Z_MSC_GDPS_AirTemp_IsbL-0500_LatLon0.15_PT063H.grib2 2026-04-30 16:10 1.0M
20260430T12Z_MSC_GDPS_AirTemp_IsbL-0550_LatLon0.15_PT063H.grib2 2026-04-30 16:10 796K
20260430T12Z_MSC_GDPS_AirTemp_IsbL-0600_LatLon0.15_PT063H.grib2 2026-04-30 16:10 887K
20260430T12Z_MSC_GDPS_AirTemp_IsbL-0650_LatLon0.15_PT063H.grib2 2026-04-30 16:10 912K
20260430T12Z_MSC_GDPS_AirTemp_IsbL-0700_LatLon0.15_PT063H.grib2 2026-04-30 16:10 947K
20260430T12Z_MSC_GDPS_AirTemp_IsbL-0750_LatLon0.15_PT063H.grib2 2026-04-30 16:10 1.0M
20260430T12Z_MSC_GDPS_AirTemp_IsbL-0800_LatLon0.15_PT063H.grib2 2026-04-30 16:10 1.1M
20260430T12Z_MSC_GDPS_AirTemp_IsbL-0850_LatLon0.15_PT063H.grib2 2026-04-30 16:10 1.1M
20260430T12Z_MSC_GDPS_AirTemp_IsbL-0875_LatLon0.15_PT063H.grib2 2026-04-30 16:10 1.2M
20260430T12Z_MSC_GDPS_AirTemp_IsbL-0900_LatLon0.15_PT063H.grib2 2026-04-30 16:10 1.1M
20260430T12Z_MSC_GDPS_AirTemp_IsbL-0925_LatLon0.15_PT063H.grib2 2026-04-30 16:10 1.1M
20260430T12Z_MSC_GDPS_AirTemp_IsbL-0950_LatLon0.15_PT063H.grib2 2026-04-30 16:10 1.1M
20260430T12Z_MSC_GDPS_AirTemp_IsbL-0970_LatLon0.15_PT063H.grib2 2026-04-30 16:10 1.2M
20260430T12Z_MSC_GDPS_AirTemp_IsbL-0985_LatLon0.15_PT063H.grib2 2026-04-30 16:10 1.1M
20260430T12Z_MSC_GDPS_AirTemp_IsbL-1000_LatLon0.15_PT063H.grib2 2026-04-30 16:10 1.1M
20260430T12Z_MSC_GDPS_AirTemp_IsbL-1015_LatLon0.15_PT063H.grib2 2026-04-30 16:10 1.1M
20260430T12Z_MSC_GDPS_Albedo_Sfc_LatLon0.15_PT063H.grib2 2026-04-30 16:10 242K
20260430T12Z_MSC_GDPS_CAPE_Sfc_LatLon0.15_PT063H.grib2 2026-04-30 16:10 4.0M
20260430T12Z_MSC_GDPS_CIN_Sfc_LatLon0.15_PT063H.grib2 2026-04-30 16:10 2.9M
20260430T12Z_MSC_GDPS_CloudWater_EAtm_LatLon0.15_PT063H.grib2 2026-04-30 16:10 530K
20260430T12Z_MSC_GDPS_ConvectivePrecip-Accum_Sfc_LatLon0.15_PT063H.grib2 2026-04-30 16:10 3.1M
20260430T12Z_MSC_GDPS_DewPointDepression_AGL-2m_LatLon0.15_PT063H.grib2 2026-04-30 16:10 766K
20260430T12Z_MSC_GDPS_DewPointDepression_IsbL-0010_LatLon0.15_PT063H.grib2 2026-04-30 16:10 66K
20260430T12Z_MSC_GDPS_DewPointDepression_IsbL-0020_LatLon0.15_PT063H.grib2 2026-04-30 16:10 67K
20260430T12Z_MSC_GDPS_DewPointDepression_IsbL-0030_LatLon0.15_PT063H.grib2 2026-04-30 16:10 83K
20260430T12Z_MSC_GDPS_DewPointDepression_IsbL-0050_LatLon0.15_PT063H.grib2 2026-04-30 16:10 377K
20260430T12Z_MSC_GDPS_DewPointDepression_IsbL-0100_LatLon0.15_PT063H.grib2 2026-04-30 16:10 412K
20260430T12Z_MSC_GDPS_DewPointDepression_IsbL-0150_LatLon0.15_PT063H.grib2 2026-04-30 16:10 465K
20260430T12Z_MSC_GDPS_DewPointDepression_IsbL-0175_LatLon0.15_PT063H.grib2 2026-04-30 16:10 577K
20260430T12Z_MSC_GDPS_DewPointDepression_IsbL-0200_LatLon0.15_PT063H.grib2 2026-04-30 16:10 682K
20260430T12Z_MSC_GDPS_DewPointDepression_IsbL-0225_LatLon0.15_PT063H.grib2 2026-04-30 16:10 779K
20260430T12Z_MSC_GDPS_DewPointDepression_IsbL-0250_LatLon0.15_PT063H.grib2 2026-04-30 16:10 857K
20260430T12Z_MSC_GDPS_DewPointDepression_IsbL-0275_LatLon0.15_PT063H.grib2 2026-04-30 16:10 876K
20260430T12Z_MSC_GDPS_DewPointDepression_IsbL-0300_LatLon0.15_PT063H.grib2 2026-04-30 16:10 917K
20260430T12Z_MSC_GDPS_DewPointDepression_IsbL-0350_LatLon0.15_PT063H.grib2 2026-04-30 16:10 950K
20260430T12Z_MSC_GDPS_DewPointDepression_IsbL-0400_LatLon0.15_PT063H.grib2 2026-04-30 16:10 1.0M
20260430T12Z_MSC_GDPS_DewPointDepression_IsbL-0450_LatLon0.15_PT063H.grib2 2026-04-30 16:10 1.0M
20260430T12Z_MSC_GDPS_DewPointDepression_IsbL-0500_LatLon0.15_PT063H.grib2 2026-04-30 16:10 1.0M
20260430T12Z_MSC_GDPS_DewPointDepression_IsbL-0550_LatLon0.15_PT063H.grib2 2026-04-30 16:10 1.0M
20260430T12Z_MSC_GDPS_DewPointDepression_IsbL-0600_LatLon0.15_PT063H.grib2 2026-04-30 16:10 1.0M
20260430T12Z_MSC_GDPS_DewPointDepression_IsbL-0650_LatLon0.15_PT063H.grib2 2026-04-30 16:10 1.1M
20260430T12Z_MSC_GDPS_DewPointDepression_IsbL-0700_LatLon0.15_PT063H.grib2 2026-04-30 16:10 1.1M
20260430T12Z_MSC_GDPS_DewPointDepression_IsbL-0750_LatLon0.15_PT063H.grib2 2026-04-30 16:10 1.1M
20260430T12Z_MSC_GDPS_DewPointDepression_IsbL-0800_LatLon0.15_PT063H.grib2 2026-04-30 16:10 1.2M
20260430T12Z_MSC_GDPS_DewPointDepression_IsbL-0850_LatLon0.15_PT063H.grib2 2026-04-30 16:10 1.2M
20260430T12Z_MSC_GDPS_DewPointDepression_IsbL-0875_LatLon0.15_PT063H.grib2 2026-04-30 16:10 1.1M
20260430T12Z_MSC_GDPS_DewPointDepression_IsbL-0900_LatLon0.15_PT063H.grib2 2026-04-30 16:10 1.1M
20260430T12Z_MSC_GDPS_DewPointDepression_IsbL-0925_LatLon0.15_PT063H.grib2 2026-04-30 16:10 1.0M
20260430T12Z_MSC_GDPS_DewPointDepression_IsbL-0950_LatLon0.15_PT063H.grib2 2026-04-30 16:10 1.0M
20260430T12Z_MSC_GDPS_DewPointDepression_IsbL-0970_LatLon0.15_PT063H.grib2 2026-04-30 16:10 1.0M
20260430T12Z_MSC_GDPS_DewPointDepression_IsbL-0985_LatLon0.15_PT063H.grib2 2026-04-30 16:10 1.0M
20260430T12Z_MSC_GDPS_DewPointDepression_IsbL-1000_LatLon0.15_PT063H.grib2 2026-04-30 16:10 1.0M
20260430T12Z_MSC_GDPS_DewPointDepression_IsbL-1015_LatLon0.15_PT063H.grib2 2026-04-30 16:10 915K
20260430T12Z_MSC_GDPS_DewPoint_AGL-2m_LatLon0.15_PT063H.grib2 2026-04-30 16:10 603K
20260430T12Z_MSC_GDPS_DownwardLongwaveRadiationFlux-Accum_Sfc_LatLon0.15_PT063H.grib2 2026-04-30 16:10 881K
20260430T12Z_MSC_GDPS_DownwardShortwaveRadiationFlux-Accum_NTAtm_LatLon0.15_PT063H.grib2 2026-04-30 16:10 219K
20260430T12Z_MSC_GDPS_DownwardShortwaveRadiationFlux-Accum_Sfc_LatLon0.15_PT063H.grib2 2026-04-30 16:10 1.1M
20260430T12Z_MSC_GDPS_FreezingRain-Accum1h_Sfc_LatLon0.15_PT063H.grib2 2026-04-30 16:10 32K
20260430T12Z_MSC_GDPS_FreezingRain-Accum3h_Sfc_LatLon0.15_PT063H.grib2 2026-04-30 16:10 38K
20260430T12Z_MSC_GDPS_FreezingRain-Accum_Sfc_LatLon0.15_PT063H.grib2 2026-04-30 16:10 310K
20260430T12Z_MSC_GDPS_GeopotentialHeight_IsbL-0001_LatLon0.15_PT063H.grib2 2026-04-30 16:10 420K
20260430T12Z_MSC_GDPS_GeopotentialHeight_IsbL-0005_LatLon0.15_PT063H.grib2 2026-04-30 16:10 487K
20260430T12Z_MSC_GDPS_GeopotentialHeight_IsbL-0010_LatLon0.15_PT063H.grib2 2026-04-30 16:10 478K
20260430T12Z_MSC_GDPS_GeopotentialHeight_IsbL-0020_LatLon0.15_PT063H.grib2 2026-04-30 16:10 408K
20260430T12Z_MSC_GDPS_GeopotentialHeight_IsbL-0030_LatLon0.15_PT063H.grib2 2026-04-30 16:10 565K
20260430T12Z_MSC_GDPS_GeopotentialHeight_IsbL-0050_LatLon0.15_PT063H.grib2 2026-04-30 16:10 565K
20260430T12Z_MSC_GDPS_GeopotentialHeight_IsbL-0100_LatLon0.15_PT063H.grib2 2026-04-30 16:10 604K
20260430T12Z_MSC_GDPS_GeopotentialHeight_IsbL-0150_LatLon0.15_PT063H.grib2 2026-04-30 16:10 624K
20260430T12Z_MSC_GDPS_GeopotentialHeight_IsbL-0175_LatLon0.15_PT063H.grib2 2026-04-30 16:10 627K
20260430T12Z_MSC_GDPS_GeopotentialHeight_IsbL-0200_LatLon0.15_PT063H.grib2 2026-04-30 16:10 632K
20260430T12Z_MSC_GDPS_GeopotentialHeight_IsbL-0225_LatLon0.15_PT063H.grib2 2026-04-30 16:10 635K
20260430T12Z_MSC_GDPS_GeopotentialHeight_IsbL-0250_LatLon0.15_PT063H.grib2 2026-04-30 16:10 638K
20260430T12Z_MSC_GDPS_GeopotentialHeight_IsbL-0275_LatLon0.15_PT063H.grib2 2026-04-30 16:10 637K
20260430T12Z_MSC_GDPS_GeopotentialHeight_IsbL-0300_LatLon0.15_PT063H.grib2 2026-04-30 16:10 629K
20260430T12Z_MSC_GDPS_GeopotentialHeight_IsbL-0350_LatLon0.15_PT063H.grib2 2026-04-30 16:10 624K
20260430T12Z_MSC_GDPS_GeopotentialHeight_IsbL-0400_LatLon0.15_PT063H.grib2 2026-04-30 16:10 617K
20260430T12Z_MSC_GDPS_GeopotentialHeight_IsbL-0450_LatLon0.15_PT063H.grib2 2026-04-30 16:10 608K
20260430T12Z_MSC_GDPS_GeopotentialHeight_IsbL-0500_LatLon0.15_PT063H.grib2 2026-04-30 16:10 598K
20260430T12Z_MSC_GDPS_GeopotentialHeight_IsbL-0550_LatLon0.15_PT063H.grib2 2026-04-30 16:10 524K
20260430T12Z_MSC_GDPS_GeopotentialHeight_IsbL-0600_LatLon0.15_PT063H.grib2 2026-04-30 16:10 520K
20260430T12Z_MSC_GDPS_GeopotentialHeight_IsbL-0650_LatLon0.15_PT063H.grib2 2026-04-30 16:10 686K
20260430T12Z_MSC_GDPS_GeopotentialHeight_IsbL-0700_LatLon0.15_PT063H.grib2 2026-04-30 16:10 680K
20260430T12Z_MSC_GDPS_GeopotentialHeight_IsbL-0750_LatLon0.15_PT063H.grib2 2026-04-30 16:10 690K
20260430T12Z_MSC_GDPS_GeopotentialHeight_IsbL-0800_LatLon0.15_PT063H.grib2 2026-04-30 16:10 700K
20260430T12Z_MSC_GDPS_GeopotentialHeight_IsbL-0850_LatLon0.15_PT063H.grib2 2026-04-30 16:10 708K
20260430T12Z_MSC_GDPS_GeopotentialHeight_IsbL-0875_LatLon0.15_PT063H.grib2 2026-04-30 16:10 717K
20260430T12Z_MSC_GDPS_GeopotentialHeight_IsbL-0900_LatLon0.15_PT063H.grib2 2026-04-30 16:10 724K
20260430T12Z_MSC_GDPS_GeopotentialHeight_IsbL-0925_LatLon0.15_PT063H.grib2 2026-04-30 16:10 735K
20260430T12Z_MSC_GDPS_GeopotentialHeight_IsbL-0950_LatLon0.15_PT063H.grib2 2026-04-30 16:10 740K
20260430T12Z_MSC_GDPS_GeopotentialHeight_IsbL-0970_LatLon0.15_PT063H.grib2 2026-04-30 16:10 753K
20260430T12Z_MSC_GDPS_GeopotentialHeight_IsbL-0985_LatLon0.15_PT063H.grib2 2026-04-30 16:10 769K
20260430T12Z_MSC_GDPS_GeopotentialHeight_IsbL-1000_LatLon0.15_PT063H.grib2 2026-04-30 16:10 789K
20260430T12Z_MSC_GDPS_GeopotentialHeight_IsbL-1015_LatLon0.15_PT063H.grib2 2026-04-30 16:10 811K
20260430T12Z_MSC_GDPS_Humidex_Sfc_LatLon0.15_PT063H.grib2 2026-04-30 16:10 5.3M
20260430T12Z_MSC_GDPS_IcePellets-Accum1h_Sfc_LatLon0.15_PT063H.grib2 2026-04-30 16:10 2.8K
20260430T12Z_MSC_GDPS_IcePellets-Accum3h_Sfc_LatLon0.15_PT063H.grib2 2026-04-30 16:10 4.3K
20260430T12Z_MSC_GDPS_IcePellets-Accum_Sfc_LatLon0.15_PT063H.grib2 2026-04-30 16:10 68K
20260430T12Z_MSC_GDPS_KIndex_Sfc_LatLon0.15_PT063H.grib2 2026-04-30 16:10 6.5M
20260430T12Z_MSC_GDPS_LatentHeatNetFlux_Sfc_LatLon0.15_PT063H.grib2 2026-04-30 16:10 681K
20260430T12Z_MSC_GDPS_LiftedIndex-MU-VT_IsbL-0500_LatLon0.15_PT063H.grib2 2026-04-30 16:10 5.4M
20260430T12Z_MSC_GDPS_NetLongwaveRadiationFlux-Accum_Sfc_LatLon0.15_PT063H.grib2 2026-04-30 16:10 1.2M
20260430T12Z_MSC_GDPS_NetShortwaveRadiationFlux-Accum_Sfc_LatLon0.15_PT063H.grib2 2026-04-30 16:10 1.1M
20260430T12Z_MSC_GDPS_O3MixingRatio_Sfc_LatLon0.15_PT063H.grib2 2026-04-30 16:44 1.9M
20260430T12Z_MSC_GDPS_O3_EAtm_LatLon0.15_PT063H.grib2 2026-04-30 16:44 2.4M
20260430T12Z_MSC_GDPS_PlanetaryBoundaryLayerHeight_Sfc_LatLon0.15_PT063H.grib2 2026-04-30 16:10 2.8M
20260430T12Z_MSC_GDPS_Precip-Accum1h_Sfc_LatLon0.15_PT063H.grib2 2026-04-30 16:10 3.2M
20260430T12Z_MSC_GDPS_Precip-Accum3h_Sfc_LatLon0.15_PT063H.grib2 2026-04-30 16:10 3.4M
20260430T12Z_MSC_GDPS_Precip-Accum_Sfc_LatLon0.15_PT063H.grib2 2026-04-30 16:10 5.1M
20260430T12Z_MSC_GDPS_PrecipRate_Sfc_LatLon0.15_PT063H.grib2 2026-04-30 16:10 3.0M
20260430T12Z_MSC_GDPS_PrecipType-Instant_Sfc_LatLon0.15_PT063H.grib2 2026-04-30 16:10 1.5M
20260430T12Z_MSC_GDPS_Pressure_MSL_LatLon0.15_PT063H.grib2 2026-04-30 16:10 720K
20260430T12Z_MSC_GDPS_Pressure_PVU-1.5_LatLon0.15_PT063H.grib2 2026-04-30 16:10 5.7M
20260430T12Z_MSC_GDPS_Pressure_PVU-1_LatLon0.15_PT063H.grib2 2026-04-30 16:10 6.0M
20260430T12Z_MSC_GDPS_Pressure_PVU-2_LatLon0.15_PT063H.grib2 2026-04-30 16:10 5.6M
20260430T12Z_MSC_GDPS_Pressure_Sfc_LatLon0.15_PT063H.grib2 2026-04-30 16:10 1.1M
20260430T12Z_MSC_GDPS_RadiativeTemp_Sfc_LatLon0.15_PT063H.grib2 2026-04-30 16:10 663K
20260430T12Z_MSC_GDPS_Rain-Accum1h_Sfc_LatLon0.15_PT063H.grib2 2026-04-30 16:10 1.4M
20260430T12Z_MSC_GDPS_Rain-Accum3h_Sfc_LatLon0.15_PT063H.grib2 2026-04-30 16:10 1.6M
20260430T12Z_MSC_GDPS_Rain-Accum_Sfc_LatLon0.15_PT063H.grib2 2026-04-30 16:10 3.8M
20260430T12Z_MSC_GDPS_RelativeHumidity_AGL-2m_LatLon0.15_PT063H.grib2 2026-04-30 16:10 1.0M
20260430T12Z_MSC_GDPS_RelativeHumidity_IsbL-0010_LatLon0.15_PT063H.grib2 2026-04-30 16:10 202K
20260430T12Z_MSC_GDPS_RelativeHumidity_IsbL-0020_LatLon0.15_PT063H.grib2 2026-04-30 16:10 168K
20260430T12Z_MSC_GDPS_RelativeHumidity_IsbL-0030_LatLon0.15_PT063H.grib2 2026-04-30 16:10 270K
20260430T12Z_MSC_GDPS_RelativeHumidity_IsbL-0050_LatLon0.15_PT063H.grib2 2026-04-30 16:10 421K
20260430T12Z_MSC_GDPS_RelativeHumidity_IsbL-0100_LatLon0.15_PT063H.grib2 2026-04-30 16:10 515K
20260430T12Z_MSC_GDPS_RelativeHumidity_IsbL-0150_LatLon0.15_PT063H.grib2 2026-04-30 16:10 660K
20260430T12Z_MSC_GDPS_RelativeHumidity_IsbL-0175_LatLon0.15_PT063H.grib2 2026-04-30 16:10 782K
20260430T12Z_MSC_GDPS_RelativeHumidity_IsbL-0200_LatLon0.15_PT063H.grib2 2026-04-30 16:10 701K
20260430T12Z_MSC_GDPS_RelativeHumidity_IsbL-0225_LatLon0.15_PT063H.grib2 2026-04-30 16:10 790K
20260430T12Z_MSC_GDPS_RelativeHumidity_IsbL-0250_LatLon0.15_PT063H.grib2 2026-04-30 16:10 860K
20260430T12Z_MSC_GDPS_RelativeHumidity_IsbL-0275_LatLon0.15_PT063H.grib2 2026-04-30 16:10 881K
20260430T12Z_MSC_GDPS_RelativeHumidity_IsbL-0300_LatLon0.15_PT063H.grib2 2026-04-30 16:10 923K
20260430T12Z_MSC_GDPS_RelativeHumidity_IsbL-0350_LatLon0.15_PT063H.grib2 2026-04-30 16:10 944K
20260430T12Z_MSC_GDPS_RelativeHumidity_IsbL-0400_LatLon0.15_PT063H.grib2 2026-04-30 16:10 968K
20260430T12Z_MSC_GDPS_RelativeHumidity_IsbL-0450_LatLon0.15_PT063H.grib2 2026-04-30 16:10 1.0M
20260430T12Z_MSC_GDPS_RelativeHumidity_IsbL-0500_LatLon0.15_PT063H.grib2 2026-04-30 16:10 1.0M
20260430T12Z_MSC_GDPS_RelativeHumidity_IsbL-0550_LatLon0.15_PT063H.grib2 2026-04-30 16:10 1.1M
20260430T12Z_MSC_GDPS_RelativeHumidity_IsbL-0600_LatLon0.15_PT063H.grib2 2026-04-30 16:10 1.1M
20260430T12Z_MSC_GDPS_RelativeHumidity_IsbL-0650_LatLon0.15_PT063H.grib2 2026-04-30 16:10 1.1M
20260430T12Z_MSC_GDPS_RelativeHumidity_IsbL-0700_LatLon0.15_PT063H.grib2 2026-04-30 16:10 1.1M
20260430T12Z_MSC_GDPS_RelativeHumidity_IsbL-0750_LatLon0.15_PT063H.grib2 2026-04-30 16:10 1.2M
20260430T12Z_MSC_GDPS_RelativeHumidity_IsbL-0800_LatLon0.15_PT063H.grib2 2026-04-30 16:10 1.3M
20260430T12Z_MSC_GDPS_RelativeHumidity_IsbL-0850_LatLon0.15_PT063H.grib2 2026-04-30 16:10 1.3M
20260430T12Z_MSC_GDPS_RelativeHumidity_IsbL-0875_LatLon0.15_PT063H.grib2 2026-04-30 16:10 1.3M
20260430T12Z_MSC_GDPS_RelativeHumidity_IsbL-0900_LatLon0.15_PT063H.grib2 2026-04-30 16:10 1.3M
20260430T12Z_MSC_GDPS_RelativeHumidity_IsbL-0925_LatLon0.15_PT063H.grib2 2026-04-30 16:10 1.2M
20260430T12Z_MSC_GDPS_RelativeHumidity_IsbL-0950_LatLon0.15_PT063H.grib2 2026-04-30 16:10 1.2M
20260430T12Z_MSC_GDPS_RelativeHumidity_IsbL-0970_LatLon0.15_PT063H.grib2 2026-04-30 16:10 1.2M
20260430T12Z_MSC_GDPS_RelativeHumidity_IsbL-0985_LatLon0.15_PT063H.grib2 2026-04-30 16:10 1.2M
20260430T12Z_MSC_GDPS_RelativeHumidity_IsbL-1000_LatLon0.15_PT063H.grib2 2026-04-30 16:10 1.1M
20260430T12Z_MSC_GDPS_RelativeHumidity_IsbL-1015_LatLon0.15_PT063H.grib2 2026-04-30 16:10 1.0M
20260430T12Z_MSC_GDPS_RelativeVorticity_IsbL-0200_LatLon0.15_PT063H.grib2 2026-04-30 16:10 1.5M
20260430T12Z_MSC_GDPS_RelativeVorticity_IsbL-0250_LatLon0.15_PT063H.grib2 2026-04-30 16:10 1.6M
20260430T12Z_MSC_GDPS_RelativeVorticity_IsbL-0500_LatLon0.15_PT063H.grib2 2026-04-30 16:10 1.4M
20260430T12Z_MSC_GDPS_RelativeVorticity_IsbL-0700_LatLon0.15_PT063H.grib2 2026-04-30 16:10 1.3M
20260430T12Z_MSC_GDPS_RelativeVorticity_IsbL-0850_LatLon0.15_PT063H.grib2 2026-04-30 16:10 1.6M
20260430T12Z_MSC_GDPS_Runoff-Accum_Sfc_LatLon0.15_PT063H.grib2 2026-04-30 16:10 143K
20260430T12Z_MSC_GDPS_SensibleHeatNetFlux_Sfc_LatLon0.15_PT063H.grib2 2026-04-30 16:10 628K
20260430T12Z_MSC_GDPS_ShowalterIndex_IsbL-0500_LatLon0.15_PT063H.grib2 2026-04-30 16:10 6.2M
20260430T12Z_MSC_GDPS_Snow-Accum1h_Sfc_LatLon0.15_PT063H.grib2 2026-04-30 16:10 1.1M
20260430T12Z_MSC_GDPS_Snow-Accum3h_Sfc_LatLon0.15_PT063H.grib2 2026-04-30 16:10 1.1M
20260430T12Z_MSC_GDPS_Snow-Accum_Sfc_LatLon0.15_PT063H.grib2 2026-04-30 16:10 1.8M
20260430T12Z_MSC_GDPS_SnowDensity_Sfc_LatLon0.15_PT063H.grib2 2026-04-30 16:10 263K
20260430T12Z_MSC_GDPS_SnowDepth_Sfc_LatLon0.15_PT063H.grib2 2026-04-30 16:10 1.7M
20260430T12Z_MSC_GDPS_SoilTemp_DBS-0to10cm_LatLon0.15_PT063H.grib2 2026-04-30 16:10 507K
20260430T12Z_MSC_GDPS_SoilTemp_Sfc_LatLon0.15_PT063H.grib2 2026-04-30 16:10 581K
20260430T12Z_MSC_GDPS_SoilVolumetricIceContent_Sfc_LatLon0.15_PT063H.grib2 2026-04-30 16:10 200K
20260430T12Z_MSC_GDPS_SoilVolumetricWaterContent_DBS-0to10cm_LatLon0.15_PT063H.grib2 2026-04-30 16:10 588K
20260430T12Z_MSC_GDPS_SoilVolumetricWaterContent_DBS-0to1cm_LatLon0.15_PT063H.grib2 2026-04-30 16:10 654K
20260430T12Z_MSC_GDPS_SpecificHumidity_AGL-120m_LatLon0.15_PT063H.grib2 2026-04-30 16:10 1.1M
20260430T12Z_MSC_GDPS_SpecificHumidity_AGL-2m_LatLon0.15_PT063H.grib2 2026-04-30 16:10 1.2M
20260430T12Z_MSC_GDPS_SpecificHumidity_AGL-40m_LatLon0.15_PT063H.grib2 2026-04-30 16:10 1.1M
20260430T12Z_MSC_GDPS_SpecificHumidity_AGL-80m_LatLon0.15_PT063H.grib2 2026-04-30 16:10 1.1M
20260430T12Z_MSC_GDPS_SpecificHumidity_IsbL-0001_LatLon0.15_PT063H.grib2 2026-04-30 16:10 1.3M
20260430T12Z_MSC_GDPS_SpecificHumidity_IsbL-0005_LatLon0.15_PT063H.grib2 2026-04-30 16:10 1.2M
20260430T12Z_MSC_GDPS_SpecificHumidity_IsbL-0010_LatLon0.15_PT063H.grib2 2026-04-30 16:10 1.3M
20260430T12Z_MSC_GDPS_SpecificHumidity_IsbL-0020_LatLon0.15_PT063H.grib2 2026-04-30 16:10 1.4M
20260430T12Z_MSC_GDPS_SpecificHumidity_IsbL-0030_LatLon0.15_PT063H.grib2 2026-04-30 16:10 1.3M
20260430T12Z_MSC_GDPS_SpecificHumidity_IsbL-0050_LatLon0.15_PT063H.grib2 2026-04-30 16:10 1.7M
20260430T12Z_MSC_GDPS_SpecificHumidity_IsbL-0100_LatLon0.15_PT063H.grib2 2026-04-30 16:10 1.3M
20260430T12Z_MSC_GDPS_SpecificHumidity_IsbL-0150_LatLon0.15_PT063H.grib2 2026-04-30 16:10 1.3M
20260430T12Z_MSC_GDPS_SpecificHumidity_IsbL-0175_LatLon0.15_PT063H.grib2 2026-04-30 16:10 1.2M
20260430T12Z_MSC_GDPS_SpecificHumidity_IsbL-0200_LatLon0.15_PT063H.grib2 2026-04-30 16:10 1.3M
20260430T12Z_MSC_GDPS_SpecificHumidity_IsbL-0225_LatLon0.15_PT063H.grib2 2026-04-30 16:10 1.3M
20260430T12Z_MSC_GDPS_SpecificHumidity_IsbL-0250_LatLon0.15_PT063H.grib2 2026-04-30 16:10 1.4M
20260430T12Z_MSC_GDPS_SpecificHumidity_IsbL-0275_LatLon0.15_PT063H.grib2 2026-04-30 16:10 1.3M
20260430T12Z_MSC_GDPS_SpecificHumidity_IsbL-0300_LatLon0.15_PT063H.grib2 2026-04-30 16:10 1.2M
20260430T12Z_MSC_GDPS_SpecificHumidity_IsbL-0350_LatLon0.15_PT063H.grib2 2026-04-30 16:10 1.2M
20260430T12Z_MSC_GDPS_SpecificHumidity_IsbL-0400_LatLon0.15_PT063H.grib2 2026-04-30 16:10 1.5M
20260430T12Z_MSC_GDPS_SpecificHumidity_IsbL-0450_LatLon0.15_PT063H.grib2 2026-04-30 16:10 1.6M
20260430T12Z_MSC_GDPS_SpecificHumidity_IsbL-0500_LatLon0.15_PT063H.grib2 2026-04-30 16:10 1.4M
20260430T12Z_MSC_GDPS_SpecificHumidity_IsbL-0550_LatLon0.15_PT063H.grib2 2026-04-30 16:10 1.6M
20260430T12Z_MSC_GDPS_SpecificHumidity_IsbL-0600_LatLon0.15_PT063H.grib2 2026-04-30 16:10 1.7M
20260430T12Z_MSC_GDPS_SpecificHumidity_IsbL-0650_LatLon0.15_PT063H.grib2 2026-04-30 16:10 1.5M
20260430T12Z_MSC_GDPS_SpecificHumidity_IsbL-0700_LatLon0.15_PT063H.grib2 2026-04-30 16:10 1.6M
20260430T12Z_MSC_GDPS_SpecificHumidity_IsbL-0750_LatLon0.15_PT063H.grib2 2026-04-30 16:10 1.7M
20260430T12Z_MSC_GDPS_SpecificHumidity_IsbL-0800_LatLon0.15_PT063H.grib2 2026-04-30 16:10 1.8M
20260430T12Z_MSC_GDPS_SpecificHumidity_IsbL-0850_LatLon0.15_PT063H.grib2 2026-04-30 16:10 1.9M
20260430T12Z_MSC_GDPS_SpecificHumidity_IsbL-0875_LatLon0.15_PT063H.grib2 2026-04-30 16:10 1.9M
20260430T12Z_MSC_GDPS_SpecificHumidity_IsbL-0900_LatLon0.15_PT063H.grib2 2026-04-30 16:10 1.9M
20260430T12Z_MSC_GDPS_SpecificHumidity_IsbL-0925_LatLon0.15_PT063H.grib2 2026-04-30 16:10 1.6M
20260430T12Z_MSC_GDPS_SpecificHumidity_IsbL-0950_LatLon0.15_PT063H.grib2 2026-04-30 16:10 1.6M
20260430T12Z_MSC_GDPS_SpecificHumidity_IsbL-0970_LatLon0.15_PT063H.grib2 2026-04-30 16:10 1.5M
20260430T12Z_MSC_GDPS_SpecificHumidity_IsbL-0985_LatLon0.15_PT063H.grib2 2026-04-30 16:10 1.5M
20260430T12Z_MSC_GDPS_SpecificHumidity_IsbL-1000_LatLon0.15_PT063H.grib2 2026-04-30 16:10 1.5M
20260430T12Z_MSC_GDPS_SpecificHumidity_IsbL-1015_LatLon0.15_PT063H.grib2 2026-04-30 16:10 1.4M
20260430T12Z_MSC_GDPS_SpecificHumidity_Sfc_LatLon0.15_PT063H.grib2 2026-04-30 16:10 634K
20260430T12Z_MSC_GDPS_Thickness_IsbL-0850to0700_LatLon0.15_PT063H.grib2 2026-04-30 16:10 466K
20260430T12Z_MSC_GDPS_Thickness_IsbL-1000to0500_LatLon0.15_PT063H.grib2 2026-04-30 16:10 372K
20260430T12Z_MSC_GDPS_Thickness_IsbL-1000to0850_LatLon0.15_PT063H.grib2 2026-04-30 16:10 489K
20260430T12Z_MSC_GDPS_TotalCloudCover_Sfc_LatLon0.15_PT063H.grib2 2026-04-30 16:10 821K
20260430T12Z_MSC_GDPS_TotalTotalsIndex_Sfc_LatLon0.15_PT063H.grib2 2026-04-30 16:10 6.2M
20260430T12Z_MSC_GDPS_UVIndex-ClearSky_Sfc_LatLon0.15_PT063H.grib2 2026-04-30 16:44 1.0M
20260430T12Z_MSC_GDPS_UVIndex_Sfc_LatLon0.15_PT063H.grib2 2026-04-30 16:44 1.5M
20260430T12Z_MSC_GDPS_UpwardLongwaveRadiationFlux_NTAtm_LatLon0.15_PT063H.grib2 2026-04-30 16:10 1.1M
20260430T12Z_MSC_GDPS_VerticalVelocity_IsbL-0200_LatLon0.15_PT063H.grib2 2026-04-30 16:10 924K
20260430T12Z_MSC_GDPS_VerticalVelocity_IsbL-0250_LatLon0.15_PT063H.grib2 2026-04-30 16:10 1.0M
20260430T12Z_MSC_GDPS_VerticalVelocity_IsbL-0500_LatLon0.15_PT063H.grib2 2026-04-30 16:10 1.3M
20260430T12Z_MSC_GDPS_VerticalVelocity_IsbL-0600_LatLon0.15_PT063H.grib2 2026-04-30 16:10 1.1M
20260430T12Z_MSC_GDPS_VerticalVelocity_IsbL-0700_LatLon0.15_PT063H.grib2 2026-04-30 16:10 1.1M
20260430T12Z_MSC_GDPS_VerticalVelocity_IsbL-0850_LatLon0.15_PT063H.grib2 2026-04-30 16:10 1.6M
20260430T12Z_MSC_GDPS_WindChill_Sfc_LatLon0.15_PT063H.grib2 2026-04-30 16:10 5.3M
20260430T12Z_MSC_GDPS_WindDir_AGL-10m_LatLon0.15_PT063H.grib2 2026-04-30 16:10 1.3M
20260430T12Z_MSC_GDPS_WindDir_AGL-120m_LatLon0.15_PT063H.grib2 2026-04-30 16:10 1.3M
20260430T12Z_MSC_GDPS_WindDir_AGL-40m_LatLon0.15_PT063H.grib2 2026-04-30 16:10 1.4M
20260430T12Z_MSC_GDPS_WindDir_AGL-80m_LatLon0.15_PT063H.grib2 2026-04-30 16:10 1.4M
20260430T12Z_MSC_GDPS_WindDir_IsbL-0001_LatLon0.15_PT063H.grib2 2026-04-30 16:10 695K
20260430T12Z_MSC_GDPS_WindDir_IsbL-0005_LatLon0.15_PT063H.grib2 2026-04-30 16:10 807K
20260430T12Z_MSC_GDPS_WindDir_IsbL-0010_LatLon0.15_PT063H.grib2 2026-04-30 16:10 841K
20260430T12Z_MSC_GDPS_WindDir_IsbL-0020_LatLon0.15_PT063H.grib2 2026-04-30 16:10 950K
20260430T12Z_MSC_GDPS_WindDir_IsbL-0030_LatLon0.15_PT063H.grib2 2026-04-30 16:10 941K
20260430T12Z_MSC_GDPS_WindDir_IsbL-0050_LatLon0.15_PT063H.grib2 2026-04-30 16:10 958K
20260430T12Z_MSC_GDPS_WindDir_IsbL-0100_LatLon0.15_PT063H.grib2 2026-04-30 16:10 1.0M
20260430T12Z_MSC_GDPS_WindDir_IsbL-0150_LatLon0.15_PT063H.grib2 2026-04-30 16:10 1.0M
20260430T12Z_MSC_GDPS_WindDir_IsbL-0175_LatLon0.15_PT063H.grib2 2026-04-30 16:10 1.1M
20260430T12Z_MSC_GDPS_WindDir_IsbL-0200_LatLon0.15_PT063H.grib2 2026-04-30 16:10 1.1M
20260430T12Z_MSC_GDPS_WindDir_IsbL-0225_LatLon0.15_PT063H.grib2 2026-04-30 16:10 1.1M
20260430T12Z_MSC_GDPS_WindDir_IsbL-0250_LatLon0.15_PT063H.grib2 2026-04-30 16:10 1.1M
20260430T12Z_MSC_GDPS_WindDir_IsbL-0275_LatLon0.15_PT063H.grib2 2026-04-30 16:10 1.2M
20260430T12Z_MSC_GDPS_WindDir_IsbL-0300_LatLon0.15_PT063H.grib2 2026-04-30 16:10 1.2M
20260430T12Z_MSC_GDPS_WindDir_IsbL-0350_LatLon0.15_PT063H.grib2 2026-04-30 16:10 1.2M
20260430T12Z_MSC_GDPS_WindDir_IsbL-0400_LatLon0.15_PT063H.grib2 2026-04-30 16:10 1.3M
20260430T12Z_MSC_GDPS_WindDir_IsbL-0450_LatLon0.15_PT063H.grib2 2026-04-30 16:10 1.3M
20260430T12Z_MSC_GDPS_WindDir_IsbL-0500_LatLon0.15_PT063H.grib2 2026-04-30 16:10 1.3M
20260430T12Z_MSC_GDPS_WindDir_IsbL-0550_LatLon0.15_PT063H.grib2 2026-04-30 16:10 1.4M
20260430T12Z_MSC_GDPS_WindDir_IsbL-0600_LatLon0.15_PT063H.grib2 2026-04-30 16:10 1.4M
20260430T12Z_MSC_GDPS_WindDir_IsbL-0650_LatLon0.15_PT063H.grib2 2026-04-30 16:10 1.5M
20260430T12Z_MSC_GDPS_WindDir_IsbL-0700_LatLon0.15_PT063H.grib2 2026-04-30 16:10 1.6M
20260430T12Z_MSC_GDPS_WindDir_IsbL-0750_LatLon0.15_PT063H.grib2 2026-04-30 16:10 1.7M
20260430T12Z_MSC_GDPS_WindDir_IsbL-0800_LatLon0.15_PT063H.grib2 2026-04-30 16:10 1.8M
20260430T12Z_MSC_GDPS_WindDir_IsbL-0850_LatLon0.15_PT063H.grib2 2026-04-30 16:10 1.9M
20260430T12Z_MSC_GDPS_WindDir_IsbL-0875_LatLon0.15_PT063H.grib2 2026-04-30 16:10 1.9M
20260430T12Z_MSC_GDPS_WindDir_IsbL-0900_LatLon0.15_PT063H.grib2 2026-04-30 16:10 2.0M
20260430T12Z_MSC_GDPS_WindDir_IsbL-0925_LatLon0.15_PT063H.grib2 2026-04-30 16:10 2.0M
20260430T12Z_MSC_GDPS_WindDir_IsbL-0950_LatLon0.15_PT063H.grib2 2026-04-30 16:10 2.0M
20260430T12Z_MSC_GDPS_WindDir_IsbL-0970_LatLon0.15_PT063H.grib2 2026-04-30 16:10 2.0M
20260430T12Z_MSC_GDPS_WindDir_IsbL-0985_LatLon0.15_PT063H.grib2 2026-04-30 16:10 2.0M
20260430T12Z_MSC_GDPS_WindDir_IsbL-1000_LatLon0.15_PT063H.grib2 2026-04-30 16:10 2.1M
20260430T12Z_MSC_GDPS_WindDir_IsbL-1015_LatLon0.15_PT063H.grib2 2026-04-30 16:10 2.0M
20260430T12Z_MSC_GDPS_WindGust-Max_AGL-10m_LatLon0.15_PT063H.grib2 2026-04-30 16:10 2.2M
20260430T12Z_MSC_GDPS_WindGust-Min_AGL-10m_LatLon0.15_PT063H.grib2 2026-04-30 16:10 2.1M
20260430T12Z_MSC_GDPS_WindGust_AGL-10m_LatLon0.15_PT063H.grib2 2026-04-30 16:10 2.1M
20260430T12Z_MSC_GDPS_WindSpeed_AGL-10m_LatLon0.15_PT063H.grib2 2026-04-30 16:10 1.1M
20260430T12Z_MSC_GDPS_WindSpeed_AGL-120m_LatLon0.15_PT063H.grib2 2026-04-30 16:10 1.2M
20260430T12Z_MSC_GDPS_WindSpeed_AGL-40m_LatLon0.15_PT063H.grib2 2026-04-30 16:10 1.2M
20260430T12Z_MSC_GDPS_WindSpeed_AGL-80m_LatLon0.15_PT063H.grib2 2026-04-30 16:10 1.2M
20260430T12Z_MSC_GDPS_WindSpeed_IsbL-0001_LatLon0.15_PT063H.grib2 2026-04-30 16:10 638K
20260430T12Z_MSC_GDPS_WindSpeed_IsbL-0005_LatLon0.15_PT063H.grib2 2026-04-30 16:10 688K
20260430T12Z_MSC_GDPS_WindSpeed_IsbL-0010_LatLon0.15_PT063H.grib2 2026-04-30 16:10 626K
20260430T12Z_MSC_GDPS_WindSpeed_IsbL-0020_LatLon0.15_PT063H.grib2 2026-04-30 16:10 667K
20260430T12Z_MSC_GDPS_WindSpeed_IsbL-0030_LatLon0.15_PT063H.grib2 2026-04-30 16:10 862K
20260430T12Z_MSC_GDPS_WindSpeed_IsbL-0050_LatLon0.15_PT063H.grib2 2026-04-30 16:10 909K
20260430T12Z_MSC_GDPS_WindSpeed_IsbL-0100_LatLon0.15_PT063H.grib2 2026-04-30 16:10 1.1M
20260430T12Z_MSC_GDPS_WindSpeed_IsbL-0150_LatLon0.15_PT063H.grib2 2026-04-30 16:10 945K
20260430T12Z_MSC_GDPS_WindSpeed_IsbL-0175_LatLon0.15_PT063H.grib2 2026-04-30 16:10 1.0M
20260430T12Z_MSC_GDPS_WindSpeed_IsbL-0200_LatLon0.15_PT063H.grib2 2026-04-30 16:10 1.1M
20260430T12Z_MSC_GDPS_WindSpeed_IsbL-0225_LatLon0.15_PT063H.grib2 2026-04-30 16:10 1.1M
20260430T12Z_MSC_GDPS_WindSpeed_IsbL-0250_LatLon0.15_PT063H.grib2 2026-04-30 16:10 1.1M
20260430T12Z_MSC_GDPS_WindSpeed_IsbL-0275_LatLon0.15_PT063H.grib2 2026-04-30 16:10 1.1M
20260430T12Z_MSC_GDPS_WindSpeed_IsbL-0300_LatLon0.15_PT063H.grib2 2026-04-30 16:10 1.1M
20260430T12Z_MSC_GDPS_WindSpeed_IsbL-0350_LatLon0.15_PT063H.grib2 2026-04-30 16:10 1.1M
20260430T12Z_MSC_GDPS_WindSpeed_IsbL-0400_LatLon0.15_PT063H.grib2 2026-04-30 16:10 1.1M
20260430T12Z_MSC_GDPS_WindSpeed_IsbL-0450_LatLon0.15_PT063H.grib2 2026-04-30 16:10 1.1M
20260430T12Z_MSC_GDPS_WindSpeed_IsbL-0500_LatLon0.15_PT063H.grib2 2026-04-30 16:10 1.1M
20260430T12Z_MSC_GDPS_WindSpeed_IsbL-0550_LatLon0.15_PT063H.grib2 2026-04-30 16:10 1.1M
20260430T12Z_MSC_GDPS_WindSpeed_IsbL-0600_LatLon0.15_PT063H.grib2 2026-04-30 16:10 1.1M
20260430T12Z_MSC_GDPS_WindSpeed_IsbL-0650_LatLon0.15_PT063H.grib2 2026-04-30 16:10 1.4M
20260430T12Z_MSC_GDPS_WindSpeed_IsbL-0700_LatLon0.15_PT063H.grib2 2026-04-30 16:10 1.5M
20260430T12Z_MSC_GDPS_WindSpeed_IsbL-0750_LatLon0.15_PT063H.grib2 2026-04-30 16:10 1.5M
20260430T12Z_MSC_GDPS_WindSpeed_IsbL-0800_LatLon0.15_PT063H.grib2 2026-04-30 16:10 1.6M
20260430T12Z_MSC_GDPS_WindSpeed_IsbL-0850_LatLon0.15_PT063H.grib2 2026-04-30 16:10 1.7M
20260430T12Z_MSC_GDPS_WindSpeed_IsbL-0875_LatLon0.15_PT063H.grib2 2026-04-30 16:10 1.8M
20260430T12Z_MSC_GDPS_WindSpeed_IsbL-0900_LatLon0.15_PT063H.grib2 2026-04-30 16:10 1.8M
20260430T12Z_MSC_GDPS_WindSpeed_IsbL-0925_LatLon0.15_PT063H.grib2 2026-04-30 16:10 1.8M
20260430T12Z_MSC_GDPS_WindSpeed_IsbL-0950_LatLon0.15_PT063H.grib2 2026-04-30 16:10 1.8M
20260430T12Z_MSC_GDPS_WindSpeed_IsbL-0970_LatLon0.15_PT063H.grib2 2026-04-30 16:10 1.9M
20260430T12Z_MSC_GDPS_WindSpeed_IsbL-0985_LatLon0.15_PT063H.grib2 2026-04-30 16:10 1.9M
20260430T12Z_MSC_GDPS_WindSpeed_IsbL-1000_LatLon0.15_PT063H.grib2 2026-04-30 16:10 1.9M
20260430T12Z_MSC_GDPS_WindSpeed_IsbL-1015_LatLon0.15_PT063H.grib2 2026-04-30 16:10 1.8M
20260430T12Z_MSC_GDPS_WindU_AGL-10m_LatLon0.15_PT063H.grib2 2026-04-30 16:10 1.3M
20260430T12Z_MSC_GDPS_WindU_AGL-120m_LatLon0.15_PT063H.grib2 2026-04-30 16:10 1.0M
20260430T12Z_MSC_GDPS_WindU_AGL-40m_LatLon0.15_PT063H.grib2 2026-04-30 16:10 969K
20260430T12Z_MSC_GDPS_WindU_AGL-80m_LatLon0.15_PT063H.grib2 2026-04-30 16:10 1.0M
20260430T12Z_MSC_GDPS_WindU_IsbL-0001_LatLon0.15_PT063H.grib2 2026-04-30 16:10 646K
20260430T12Z_MSC_GDPS_WindU_IsbL-0005_LatLon0.15_PT063H.grib2 2026-04-30 16:10 688K
20260430T12Z_MSC_GDPS_WindU_IsbL-0010_LatLon0.15_PT063H.grib2 2026-04-30 16:10 700K
20260430T12Z_MSC_GDPS_WindU_IsbL-0020_LatLon0.15_PT063H.grib2 2026-04-30 16:10 730K
20260430T12Z_MSC_GDPS_WindU_IsbL-0030_LatLon0.15_PT063H.grib2 2026-04-30 16:10 737K
20260430T12Z_MSC_GDPS_WindU_IsbL-0050_LatLon0.15_PT063H.grib2 2026-04-30 16:10 768K
20260430T12Z_MSC_GDPS_WindU_IsbL-0100_LatLon0.15_PT063H.grib2 2026-04-30 16:10 924K
20260430T12Z_MSC_GDPS_WindU_IsbL-0150_LatLon0.15_PT063H.grib2 2026-04-30 16:10 1.0M
20260430T12Z_MSC_GDPS_WindU_IsbL-0175_LatLon0.15_PT063H.grib2 2026-04-30 16:10 1.0M
20260430T12Z_MSC_GDPS_WindU_IsbL-0200_LatLon0.15_PT063H.grib2 2026-04-30 16:10 840K
20260430T12Z_MSC_GDPS_WindU_IsbL-0225_LatLon0.15_PT063H.grib2 2026-04-30 16:10 850K
20260430T12Z_MSC_GDPS_WindU_IsbL-0250_LatLon0.15_PT063H.grib2 2026-04-30 16:10 853K
20260430T12Z_MSC_GDPS_WindU_IsbL-0275_LatLon0.15_PT063H.grib2 2026-04-30 16:10 881K
20260430T12Z_MSC_GDPS_WindU_IsbL-0300_LatLon0.15_PT063H.grib2 2026-04-30 16:10 871K
20260430T12Z_MSC_GDPS_WindU_IsbL-0350_LatLon0.15_PT063H.grib2 2026-04-30 16:10 1.1M
20260430T12Z_MSC_GDPS_WindU_IsbL-0400_LatLon0.15_PT063H.grib2 2026-04-30 16:10 1.1M
20260430T12Z_MSC_GDPS_WindU_IsbL-0450_LatLon0.15_PT063H.grib2 2026-04-30 16:10 1.1M
20260430T12Z_MSC_GDPS_WindU_IsbL-0500_LatLon0.15_PT063H.grib2 2026-04-30 16:10 1.1M
20260430T12Z_MSC_GDPS_WindU_IsbL-0550_LatLon0.15_PT063H.grib2 2026-04-30 16:10 1.1M
20260430T12Z_MSC_GDPS_WindU_IsbL-0600_LatLon0.15_PT063H.grib2 2026-04-30 16:10 1.1M
20260430T12Z_MSC_GDPS_WindU_IsbL-0650_LatLon0.15_PT063H.grib2 2026-04-30 16:10 1.2M
20260430T12Z_MSC_GDPS_WindU_IsbL-0700_LatLon0.15_PT063H.grib2 2026-04-30 16:10 1.2M
20260430T12Z_MSC_GDPS_WindU_IsbL-0750_LatLon0.15_PT063H.grib2 2026-04-30 16:10 1.3M
20260430T12Z_MSC_GDPS_WindU_IsbL-0800_LatLon0.15_PT063H.grib2 2026-04-30 16:10 1.3M
20260430T12Z_MSC_GDPS_WindU_IsbL-0850_LatLon0.15_PT063H.grib2 2026-04-30 16:10 1.4M
20260430T12Z_MSC_GDPS_WindU_IsbL-0875_LatLon0.15_PT063H.grib2 2026-04-30 16:10 1.5M
20260430T12Z_MSC_GDPS_WindU_IsbL-0900_LatLon0.15_PT063H.grib2 2026-04-30 16:10 1.5M
20260430T12Z_MSC_GDPS_WindU_IsbL-0925_LatLon0.15_PT063H.grib2 2026-04-30 16:10 1.5M
20260430T12Z_MSC_GDPS_WindU_IsbL-0950_LatLon0.15_PT063H.grib2 2026-04-30 16:10 1.4M
20260430T12Z_MSC_GDPS_WindU_IsbL-0970_LatLon0.15_PT063H.grib2 2026-04-30 16:10 1.4M
20260430T12Z_MSC_GDPS_WindU_IsbL-0985_LatLon0.15_PT063H.grib2 2026-04-30 16:10 1.4M
20260430T12Z_MSC_GDPS_WindU_IsbL-1000_LatLon0.15_PT063H.grib2 2026-04-30 16:10 1.4M
20260430T12Z_MSC_GDPS_WindU_IsbL-1015_LatLon0.15_PT063H.grib2 2026-04-30 16:10 1.3M
20260430T12Z_MSC_GDPS_WindV_AGL-10m_LatLon0.15_PT063H.grib2 2026-04-30 16:10 1.3M
20260430T12Z_MSC_GDPS_WindV_AGL-120m_LatLon0.15_PT063H.grib2 2026-04-30 16:10 1.0M
20260430T12Z_MSC_GDPS_WindV_AGL-40m_LatLon0.15_PT063H.grib2 2026-04-30 16:10 966K
20260430T12Z_MSC_GDPS_WindV_AGL-80m_LatLon0.15_PT063H.grib2 2026-04-30 16:10 973K
20260430T12Z_MSC_GDPS_WindV_IsbL-0001_LatLon0.15_PT063H.grib2 2026-04-30 16:10 776K
20260430T12Z_MSC_GDPS_WindV_IsbL-0005_LatLon0.15_PT063H.grib2 2026-04-30 16:10 855K
20260430T12Z_MSC_GDPS_WindV_IsbL-0010_LatLon0.15_PT063H.grib2 2026-04-30 16:10 883K
20260430T12Z_MSC_GDPS_WindV_IsbL-0020_LatLon0.15_PT063H.grib2 2026-04-30 16:10 934K
20260430T12Z_MSC_GDPS_WindV_IsbL-0030_LatLon0.15_PT063H.grib2 2026-04-30 16:10 936K
20260430T12Z_MSC_GDPS_WindV_IsbL-0050_LatLon0.15_PT063H.grib2 2026-04-30 16:10 1.0M
20260430T12Z_MSC_GDPS_WindV_IsbL-0100_LatLon0.15_PT063H.grib2 2026-04-30 16:10 1.1M
20260430T12Z_MSC_GDPS_WindV_IsbL-0150_LatLon0.15_PT063H.grib2 2026-04-30 16:10 1.0M
20260430T12Z_MSC_GDPS_WindV_IsbL-0175_LatLon0.15_PT063H.grib2 2026-04-30 16:10 1.0M
20260430T12Z_MSC_GDPS_WindV_IsbL-0200_LatLon0.15_PT063H.grib2 2026-04-30 16:10 841K
20260430T12Z_MSC_GDPS_WindV_IsbL-0225_LatLon0.15_PT063H.grib2 2026-04-30 16:10 848K
20260430T12Z_MSC_GDPS_WindV_IsbL-0250_LatLon0.15_PT063H.grib2 2026-04-30 16:10 849K
20260430T12Z_MSC_GDPS_WindV_IsbL-0275_LatLon0.15_PT063H.grib2 2026-04-30 16:10 875K
20260430T12Z_MSC_GDPS_WindV_IsbL-0300_LatLon0.15_PT063H.grib2 2026-04-30 16:10 863K
20260430T12Z_MSC_GDPS_WindV_IsbL-0350_LatLon0.15_PT063H.grib2 2026-04-30 16:10 874K
20260430T12Z_MSC_GDPS_WindV_IsbL-0400_LatLon0.15_PT063H.grib2 2026-04-30 16:10 876K
20260430T12Z_MSC_GDPS_WindV_IsbL-0450_LatLon0.15_PT063H.grib2 2026-04-30 16:10 877K
20260430T12Z_MSC_GDPS_WindV_IsbL-0500_LatLon0.15_PT063H.grib2 2026-04-30 16:10 1.1M
20260430T12Z_MSC_GDPS_WindV_IsbL-0550_LatLon0.15_PT063H.grib2 2026-04-30 16:10 1.1M
20260430T12Z_MSC_GDPS_WindV_IsbL-0600_LatLon0.15_PT063H.grib2 2026-04-30 16:10 1.1M
20260430T12Z_MSC_GDPS_WindV_IsbL-0650_LatLon0.15_PT063H.grib2 2026-04-30 16:10 1.2M
20260430T12Z_MSC_GDPS_WindV_IsbL-0700_LatLon0.15_PT063H.grib2 2026-04-30 16:10 1.2M
20260430T12Z_MSC_GDPS_WindV_IsbL-0750_LatLon0.15_PT063H.grib2 2026-04-30 16:10 1.3M
20260430T12Z_MSC_GDPS_WindV_IsbL-0800_LatLon0.15_PT063H.grib2 2026-04-30 16:10 1.3M
20260430T12Z_MSC_GDPS_WindV_IsbL-0850_LatLon0.15_PT063H.grib2 2026-04-30 16:10 1.4M
20260430T12Z_MSC_GDPS_WindV_IsbL-0875_LatLon0.15_PT063H.grib2 2026-04-30 16:10 1.4M
20260430T12Z_MSC_GDPS_WindV_IsbL-0900_LatLon0.15_PT063H.grib2 2026-04-30 16:10 1.5M
20260430T12Z_MSC_GDPS_WindV_IsbL-0925_LatLon0.15_PT063H.grib2 2026-04-30 16:10 1.5M
20260430T12Z_MSC_GDPS_WindV_IsbL-0950_LatLon0.15_PT063H.grib2 2026-04-30 16:10 1.4M
20260430T12Z_MSC_GDPS_WindV_IsbL-0970_LatLon0.15_PT063H.grib2 2026-04-30 16:10 1.4M
20260430T12Z_MSC_GDPS_WindV_IsbL-0985_LatLon0.15_PT063H.grib2 2026-04-30 16:10 1.4M
20260430T12Z_MSC_GDPS_WindV_IsbL-1000_LatLon0.15_PT063H.grib2 2026-04-30 16:10 1.4M
20260430T12Z_MSC_GDPS_WindV_IsbL-1015_LatLon0.15_PT063H.grib2 2026-04-30 16:10 1.3M